Flag for France Weather past 2 weeks in Douai, France

43 °F

Passing clouds.

Feels Like: 38 °F
Forecast: 39 / 46 °F
Wind: 8 mph from Northwest

Location: Lille Airport

Current Time: Nov 26, 2015 at 2:25:45 AM

Latest Report: Nov 26, 2015 at 1:30 AM

Visibility: N/A

Pressure: 29.95 "Hg

Humidity: 87%

Dew point: 39 °F

Location of DouaiLocation

Historic Weather in Douai — Graph


Douai temperature yesterday

Maximum temperature yesterday: 48 °F (at 12:00 PM)
Minimum temperature yesterday: 39 °F (at 6:30 AM)
Average temperature yesterday: 43 °F

Past Weeks' High & Low Weather Summary

High61 °F (Nov 12, 3:00 PM)100% (Nov 19, 6:00 PM)30.36 "Hg (Nov 19, 6:00 PM)
Low28 °F (Nov 23, 6:00 AM)59% (Nov 13, 2:30 PM)29.42 "Hg (Nov 21, 1:00 PM)
Average49 °F86%29.98 "Hg
* Reported Nov 11 1:00 AM — Nov 26 1:00 AM, Douai, Weather by CustomWeather, © 2015

Note: Actual official high and low records may vary slightly from our data, if they occured in-between our weather recording intervals... More about our weather records


Douai weather history for previous 24 hours

Time TempWeatherWind HumidityBarometerVisibility
1:00 AM
Thu, Nov 26
41 °FPartly cloudy.9 mph93%29.92 "HgN/A
12:30 AM43 °FPartly cloudy.9 mph81%29.92 "HgN/A
12:00 AM43 °FClear.9 mph81%29.92 "Hg10 mi
11:30 PM
Wed, Nov 25
43 °FOvercast.13 mph87%29.92 "HgN/A
11:00 PM43 °FPartly cloudy.7 mph87%29.92 "HgN/A
10:30 PM43 °FPassing clouds.12 mph87%29.89 "HgN/A
10:00 PM43 °FPartly cloudy.8 mph87%29.89 "HgN/A
9:30 PM43 °FPartly cloudy.9 mph87%29.89 "HgN/A
9:00 PM43 °FLight rain. Partly cloudy.7 mph87%29.89 "HgN/A
8:30 PM41 °FPartly cloudy.2 mph93%29.86 "HgN/A
8:00 PM41 °FPartly cloudy.6 mph93%29.86 "HgN/A
7:30 PM43 °FPassing clouds.10 mph87%29.86 "HgN/A
7:00 PM43 °FPartly cloudy.8 mph87%29.83 "HgN/A
6:30 PM43 °FLight rain. Partly cloudy.14 mph87%29.83 "HgN/A
6:00 PM45 °FPassing clouds.13 mph76%29.80 "HgN/A
5:30 PM45 °FOvercast.9 mph81%29.80 "HgN/A
5:00 PM45 °FPassing clouds.12 mph81%29.77 "HgN/A
4:30 PM46 °FBroken clouds.14 mph76%29.77 "HgN/A
4:00 PM46 °FSunny.14 mph76%29.77 "Hg10 mi
3:30 PM46 °FPartly sunny.13 mph76%29.77 "HgN/A
3:00 PM48 °FSunny.15 mph71%29.77 "Hg10 mi
2:30 PM48 °FSunny.13 mph71%29.77 "Hg10 mi
2:00 PM45 °FSunny.10 mph87%29.77 "Hg10 mi
1:30 PM43 °FLight rain. Broken clouds.13 mph87%29.77 "HgN/A
1:00 PM45 °FBroken clouds.13 mph87%29.77 "HgN/A
12:30 PM48 °FPartly sunny.15 mph82%29.77 "HgN/A
12:00 PM48 °FMostly cloudy.17 mph82%29.77 "HgN/A
11:30 AM46 °FBroken clouds.14 mph87%29.77 "HgN/A
11:00 AM46 °FBroken clouds.13 mph87%29.77 "HgN/A
10:30 AM45 °FPartly sunny.10 mph93%29.77 "HgN/A
10:00 AM45 °FScattered clouds.12 mph93%29.77 "HgN/A
9:30 AM43 °FPassing clouds.7 mph93%29.77 "HgN/A
9:00 AM41 °FBroken clouds.7 mph100%29.77 "HgN/A
8:30 AM41 °FPartly sunny.7 mph93%29.77 "HgN/A
8:00 AM39 °FPassing clouds.7 mph100%29.77 "HgN/A
7:30 AM41 °FClear.7 mph93%29.77 "Hg10 mi
7:00 AM39 °FClear.8 mph100%29.77 "Hg10 mi
6:30 AM39 °FClear.8 mph100%29.77 "Hg10 mi
6:00 AM41 °FClear.8 mph93%29.77 "Hg10 mi
5:30 AM41 °FClear.9 mph93%29.77 "Hg10 mi
4:30 AM41 °FPassing clouds.9 mph93%29.77 "HgN/A
4:00 AM41 °FPassing clouds.9 mph93%29.77 "HgN/A
3:30 AM41 °FPassing clouds.7 mph93%29.77 "HgN/A
3:00 AM43 °FClear.8 mph93%29.77 "Hg10 mi
2:30 AM43 °FClear.9 mph93%29.77 "Hg10 mi
2:00 AM45 °FClear.9 mph93%29.77 "Hg10 mi
Weather by CustomWeather, © 2015

See weather overviewHow to use our weather pages